Weather in Hlukhiv

Ukraine / Sumi District     51°40′19″N   33°54′39″E
temp.,
°C
wind,
m/s
gust,
m/s
humid.,
%
clouds,
%
prec.,
mm/h
press.,
hPa
HPBL,
m
27 october, wed
wed2700:00+2ssw5146824 0.0 1027284
03:00+2ssw5147263 0.0 1026282
06:00+2ssw513785 0.0 1024293
09:00+3sw614790 0.0 1023421
12:00+8sw710670 0.0 1022685
15:00+9wsw685977 0.0 1021824
18:00+7w4868100 0.0 1022387
21:00+5w35815 0.0 102292
28 october, thu
thu2800:00+4w3593100 0.0 102382
03:00+4wsw3995100 0.0 1022195
06:00+6sw51388100 0.1 1020339
09:00+6wsw61389100 1.1 1019460
12:00+7w51191100 0.8 1020451
15:00+8w51195100 1.8 1020416
18:00+8wnw5119296 0.0 1021435
21:00+7wnw49961 0.0 1022181
29 october, fri
fri2900:00+6nnw38977 0.0 1024167
03:00+4n34905 0.0 102652
06:00+4nne34905 0.0 102753
09:00+4ne23875 0.0 1029109
12:00+9e22730 0.0 1029441
15:00+10se11665 0.0 1029642
18:00+7ese11825 0.0 103010
21:00+6se22880 0.0 103117
30 october, sat
sat3000:00+5sse33890 0.0 103230
03:00+4sse34914 0.0 103247
06:00+3sse34925 0.0 103261
09:00+4sse36905 0.0 1033146
12:00+10s45705 0.0 1032431
15:00+11s46625 0.0 1031642
18:00+7sse34813 0.0 103144
21:00+6s35843 0.0 103272
31 october, sun
sun3100:00+5s34865 0.0 103260
03:00+4s33850 0.0 103243
05:00+4sse34860 0.0 103153
08:00+4sse35810 0.0 1031115
11:00+10sse46610 0.0 1030419
14:00+11sse46580 0.0 1028683
17:00+7se34760 0.0 102862
20:00+6se38780 0.0 1027131